Date String (YYYY-MM-DD hh:mm:ss) UTC,Instrument flags,Ambient pressure (hPa),Sample flow (lpm),Bypass flow (lpm),Sample temperature (°C),Ambient temperature (°C),ASC tube jacket temperature (°C),LED temperature (°C),Box temperature (°C),Sample RH (%),Span deviation,Mass concentration (μg/m³),Mass concentration (μg/m³),Mass concentration (μg/m³)
DateTimeUTC,F1_M11,P_M11,Q1_M11,Q2_M11,T1_M11,T2_M11,T3_M11,T4_M11,T5_M11,U1_M11,ZSPAN_M11,X2_M11,X0_M11,X1_M11
2021-10-14 10:00:00,,0822.0,5.00,0.00,23.9,22.9,00.0,33.0,25.7,15.5,0000.0,0003.34,0008.65,0002.28
2021-10-14 10:01:00,,0822.0,5.02,0.00,23.9,22.9,00.0,33.0,25.6,15.5,0000.0,0003.31,0007.92,0002.26
2021-10-14 10:02:00,,0822.0,4.99,0.00,23.9,22.9,00.0,33.0,25.6,15.5,0000.0,0003.32,0007.65,0002.27
2021-10-14 10:03:00,,0822.0,5.01,0.00,23.9,23.0,00.0,33.0,25.6,15.5,0000.0,0003.30,0007.88,0002.26
2021-10-14 10:04:00,,0822.1,5.00,0.00,23.9,23.0,00.0,33.0,25.6,15.5,0000.0,0003.33,0008.10,0002.27
2021-10-14 10:05:00,,0822.1,5.01,0.00,23.9,23.0,00.0,33.0,25.6,15.4,0000.0,0003.36,0009.16,0002.28
2021-10-14 10:06:00,,0822.1,4.99,0.00,23.9,22.9,00.0,33.0,25.6,15.4,0000.0,0003.39,0010.29,0002.30
2021-10-14 10:07:00,,0822.1,5.01,0.00,23.9,22.9,00.0,33.0,25.6,15.4,0000.0,0003.39,0010.21,0002.33
2021-10-14 10:08:00,,0822.1,4.99,0.00,23.9,22.9,00.0,33.0,25.6,15.4,0000.0,0003.39,0010.56,0002.35
2021-10-14 10:09:00,,0822.1,5.00,0.00,23.9,22.9,00.0,33.0,25.6,15.4,0000.0,0003.39,0011.43,0002.39
2021-10-14 10:10:00,,0822.1,5.00,0.00,23.9,22.9,00.0,33.0,25.6,15.4,0000.0,0003.40,0011.74,0002.42
2021-10-14 10:11:00,,0822.0,4.99,0.00,23.9,22.9,00.0,33.0,25.6,15.3,0000.0,0003.42,0012.03,0002.45
2021-10-14 10:12:00,,0822.0,5.00,0.00,23.8,22.9,00.0,33.0,25.6,15.3,0000.0,0003.47,0012.41,0002.49
2021-10-14 10:13:00,,0822.0,4.99,0.00,23.8,22.9,00.0,33.0,25.6,15.4,0000.0,0003.46,0012.32,0002.53
2021-10-14 10:14:00,,0822.1,5.01,0.00,23.8,22.9,00.0,33.0,25.6,15.5,0000.0,0003.47,0012.53,0002.57
2021-10-14 10:15:00,,0822.0,4.99,0.00,23.8,22.9,00.0,32.9,25.6,15.5,0000.0,0003.50,0013.15,0002.60
2021-10-14 10:16:00,,0822.0,5.00,0.00,23.8,22.9,00.0,33.0,25.6,15.5,0000.0,0003.49,0012.85,0002.60
2021-10-14 10:17:00,,0822.0,5.01,0.00,23.8,22.9,00.0,33.0,25.6,15.5,0000.0,0003.50,0011.60,0002.62
2021-10-14 10:18:00,,0822.1,5.03,0.00,23.8,22.9,00.0,33.0,25.6,15.5,0000.0,0003.54,0012.38,0002.64
2021-10-14 10:19:00,,0822.1,5.00,0.00,23.8,22.9,00.0,32.9,25.6,15.5,0000.0,0003.58,0012.75,0002.64
2021-10-14 10:20:00,,0822.1,4.99,0.00,23.8,22.9,00.0,32.9,25.6,15.5,0000.0,0003.66,0012.14,0002.63
2021-10-14 10:21:00,,0822.1,5.01,0.00,23.8,22.9,00.0,32.9,25.6,15.5,0000.0,0003.66,0012.09,0002.64
2021-10-14 10:22:00,,0822.1,5.00,0.00,23.8,22.9,00.0,32.9,25.6,15.5,0000.0,0003.66,0011.74,0002.64
2021-10-14 10:23:00,,0822.1,5.00,0.00,23.8,22.9,00.0,32.9,25.5,15.5,0000.0,0003.64,0011.43,0002.63
2021-10-14 10:24:00,,0822.0,5.01,0.00,23.8,22.8,00.0,32.9,25.5,15.5,0000.0,0003.69,0011.90,0002.61
2021-10-14 10:25:00,,0822.0,4.99,0.00,23.8,22.8,00.0,32.9,25.5,15.5,0000.0,0003.68,0011.88,0002.58
2021-10-14 10:26:00,,0822.0,5.01,0.00,23.8,22.8,00.0,32.9,25.5,15.5,0000.0,0003.67,0011.26,0002.58
2021-10-14 10:27:00,,0822.0,4.99,0.00,23.8,22.8,00.0,32.9,25.5,15.5,0000.0,0003.72,0011.48,0002.58
2021-10-14 10:28:00,,0822.0,5.00,0.00,23.8,22.8,00.0,32.9,25.5,15.5,0000.0,0003.75,0011.68,0002.58
2021-10-14 10:29:00,,0822.0,5.00,0.00,23.8,22.8,00.0,32.9,25.5,15.5,0000.0,0003.75,0011.19,0002.56
2021-10-14 10:30:00,,0822.0,5.00,0.00,23.8,22.8,00.0,32.9,25.5,15.5,0000.0,0003.74,0010.63,0002.57
2021-10-14 10:31:00,,0822.1,5.00,0.00,23.8,22.8,00.0,32.9,25.5,15.5,0000.0,0003.71,0010.49,0002.58
2021-10-14 10:32:00,,0822.1,5.00,0.00,23.8,22.8,00.0,32.9,25.5,15.4,0000.0,0003.74,0010.46,0002.58
2021-10-14 10:33:00,,0822.1,5.01,0.00,23.8,22.8,00.0,32.9,25.5,15.4,0000.0,0003.77,0010.53,0002.58
2021-10-14 10:34:00,,0822.1,4.99,0.00,23.8,22.8,00.0,32.9,25.5,15.5,0000.0,0003.79,0010.83,0002.58
2021-10-14 10:35:00,,0822.0,4.99,0.00,23.8,22.8,00.0,32.9,25.6,15.4,0000.0,0003.78,0010.42,0002.57
2021-10-14 10:36:00,,0822.0,5.01,0.00,23.8,22.8,00.0,32.9,25.5,15.4,0000.0,0003.74,0009.70,0002.57
2021-10-14 10:37:00,,0822.1,5.00,0.00,23.8,22.8,00.0,32.9,25.5,15.4,0000.0,0003.73,0009.49,0002.58
2021-10-14 10:38:00,,0822.1,5.01,0.00,23.8,22.8,00.0,32.9,25.5,15.4,0000.0,0003.70,0008.92,0002.57
2021-10-14 10:39:00,,0822.0,5.00,0.00,23.8,22.8,00.0,32.9,25.5,15.4,0000.0,0003.65,0008.79,0002.56
2021-10-14 10:40:00,,0822.0,5.01,0.00,23.8,22.8,00.0,32.9,25.6,15.3,0000.0,0003.66,0009.22,0002.55
2021-10-14 10:41:00,,0821.9,5.00,0.00,23.8,22.8,00.0,32.9,25.6,15.3,0000.0,0003.68,0009.40,0002.54
2021-10-14 10:42:00,,0821.9,5.00,0.00,23.8,22.8,00.0,32.9,25.5,15.3,0000.0,0003.66,0009.26,0002.53
2021-10-14 10:43:00,,0822.0,5.00,0.00,23.8,22.8,00.0,32.9,25.5,15.3,0000.0,0003.64,0008.84,0002.50
2021-10-14 10:44:00,,0822.0,5.00,0.00,23.8,22.8,00.0,32.9,25.5,15.3,0000.0,0003.58,0008.67,0002.47
2021-10-14 10:45:00,,0821.9,5.00,0.00,23.8,22.8,00.0,32.9,25.6,15.3,0000.0,0003.55,0008.58,0002.47
2021-10-14 10:46:00,,0822.1,5.01,0.00,23.8,22.8,00.0,32.9,25.5,15.3,0000.0,0003.55,0008.75,0002.47
2021-10-14 10:47:00,,0822.1,4.98,0.00,23.8,22.8,00.0,32.9,25.5,15.2,0000.0,0003.55,0008.96,0002.46
2021-10-14 10:48:00,,0822.1,5.00,0.00,23.8,22.8,00.0,32.9,25.5,15.0,0000.0,0003.55,0009.15,0002.44
2021-10-14 10:49:00,,0822.0,5.00,0.00,23.8,22.8,00.0,32.9,25.6,15.1,0000.0,0003.53,0009.17,0002.43
2021-10-14 10:50:00,,0822.3,5.00,0.00,23.8,22.8,00.0,32.9,25.5,15.0,0000.0,0003.49,0009.02,0002.41
2021-10-14 10:51:00,,0822.0,5.00,0.00,23.8,22.8,00.0,32.9,25.5,15.0,0000.0,0003.44,0008.87,0002.40
2021-10-14 10:52:00,,0821.8,5.01,0.00,23.8,22.8,00.0,32.9,25.5,15.1,0000.0,0003.43,0008.99,0002.40
2021-10-14 10:53:00,,0822.0,4.99,0.00,23.8,22.8,00.0,32.9,25.5,15.1,0000.0,0003.38,0008.84,0002.38
2021-10-14 10:54:00,,0822.1,5.00,0.00,23.8,22.8,00.0,32.9,25.5,15.1,0000.0,0003.39,0009.06,0002.39
2021-10-14 10:55:00,,0822.1,5.00,0.00,23.8,22.8,00.0,32.9,25.5,15.1,0000.0,0003.39,0009.14,0002.39
2021-10-14 10:56:00,,0822.1,4.99,0.00,23.8,22.8,00.0,32.9,25.5,15.1,0000.0,0003.40,0009.05,0002.37
2021-10-14 10:57:00,,0821.9,5.00,0.00,23.8,22.8,00.0,32.9,25.5,15.1,0000.0,0003.37,0008.73,0002.37
2021-10-14 10:58:00,,0822.0,5.01,0.00,23.8,22.8,00.0,32.9,25.5,15.1,0000.0,0003.34,0008.41,0002.37
2021-10-14 10:59:00,,0822.1,5.00,0.00,23.8,22.8,00.0,32.9,25.5,15.1,0000.0,0003.34,0008.77,0002.38
